Date String (YYYY-MM-DD hh:mm:ss) UTC,Instrument flags,absolute air pressure of the measurement (hPa),sample flow rate (lpm),inlet stack bypass flow (lpm),air temperature of the measurement (°C),ambient temperature measured by the external sensor (°C),aerosol sample conditioner tube jacket temperature (°C),OPC LED temperature (°C),internal box temperature (°C),relative humidity of the measurement (%),span deviation,mass concentration of particles derived from Lorenz-Mie calculation of OPC scattering (μg/m³),mass concentration of particles derived from Lorenz-Mie calculation of OPC scattering (μg/m³),mass concentration of particles derived from Lorenz-Mie calculation of OPC scattering (μg/m³)
DateTimeUTC,F1_M11,P_M11,Q1_M11,Q2_M11,T1_M11,T2_M11,T3_M11,T4_M11,T5_M11,U1_M11,ZSPAN_M11,X0_M11,X2_M11,X1_M11
2023-08-26 05:00:00,SystemResetWarning,0840.2,5.00,000.00,029.5,025.0,000.0,037.8,030.3,33.8,0000.0,0007.23,0003.51,0003.09
2023-08-26 05:01:00,SystemResetWarning,0840.2,5.01,000.00,029.4,024.5,000.0,037.7,030.0,34.3,0000.0,0007.32,0003.51,0003.08
2023-08-26 05:02:00,SystemResetWarning,0840.2,5.00,000.00,029.2,024.7,000.0,037.7,029.8,33.9,0000.0,0007.34,0003.53,0003.09
2023-08-26 05:03:00,SystemResetWarning,0840.2,5.00,000.00,029.1,025.1,000.0,037.7,029.9,34.2,0000.0,0005.95,0003.52,0003.10
2023-08-26 05:04:00,SystemResetWarning,0840.2,5.00,000.00,029.1,025.5,000.0,037.7,030.0,34.2,0000.0,0005.78,0003.51,0003.10
2023-08-26 05:05:00,SystemResetWarning,0840.2,4.99,000.00,029.0,025.8,000.0,037.7,030.0,34.2,0000.0,0005.90,0003.52,0003.10
2023-08-26 05:06:00,SystemResetWarning,0840.2,5.00,000.00,029.0,026.2,000.0,037.7,030.1,34.1,0000.0,0005.70,0003.51,0003.10
2023-08-26 05:07:00,SystemResetWarning,0840.2,5.01,000.00,029.0,026.4,000.0,037.7,030.1,34.1,0000.0,0005.66,0003.51,0003.10
2023-08-26 05:08:00,SystemResetWarning,0840.2,5.00,000.00,029.0,026.6,000.0,037.7,030.2,34.2,0000.0,0005.61,0003.50,0003.11
2023-08-26 05:09:00,SystemResetWarning,0840.2,5.00,000.00,029.0,026.8,000.0,037.7,030.2,33.9,0000.0,0005.47,0003.49,0003.11
2023-08-26 05:10:00,SystemResetWarning,0840.2,5.00,000.00,029.0,026.9,000.0,037.6,030.2,34.1,0000.0,0005.48,0003.48,0003.10
2023-08-26 05:11:00,SystemResetWarning,0840.2,4.98,000.00,029.0,027.0,000.0,037.6,030.3,34.7,0000.0,0005.62,0003.52,0003.10
2023-08-26 05:12:00,SystemResetWarning,0840.2,5.01,000.00,029.1,027.2,000.0,037.6,030.3,35.5,0000.0,0005.57,0003.51,0003.11
2023-08-26 05:13:00,SystemResetWarning,0840.2,5.02,000.00,029.3,027.3,000.0,037.6,030.5,35.1,0000.0,0005.45,0003.51,0003.12
2023-08-26 05:14:00,SystemResetWarning,0840.2,4.97,000.00,029.6,027.3,000.0,037.6,030.6,34.1,0000.0,0005.50,0003.51,0003.12
2023-08-26 05:15:00,SystemResetWarning,0840.2,5.01,000.00,029.8,027.4,000.0,037.7,030.7,33.4,0000.0,0005.66,0003.54,0003.13
2023-08-26 05:16:00,SystemResetWarning,0840.2,5.01,000.00,029.9,027.5,000.0,037.7,030.6,33.1,0000.0,0005.57,0003.53,0003.12
2023-08-26 05:17:00,SystemResetWarning,0840.2,5.01,000.00,030.0,027.5,000.0,037.8,030.6,32.9,0000.0,0005.69,0003.53,0003.11
2023-08-26 05:18:00,SystemResetWarning,0840.2,5.01,000.00,030.0,027.6,000.0,037.9,030.7,32.6,0000.0,0005.70,0003.55,0003.12
2023-08-26 05:19:00,SystemResetWarning,0840.2,4.99,000.00,030.0,027.6,000.0,038.0,030.7,32.2,0000.0,0005.65,0003.56,0003.14
2023-08-26 05:20:00,SystemResetWarning,0840.2,5.00,000.00,030.0,027.7,000.0,038.0,030.7,32.3,0000.0,0005.61,0003.55,0003.13
2023-08-26 05:21:00,SystemResetWarning,0840.2,4.99,000.00,030.1,027.7,000.0,038.1,030.8,33.1,0000.0,0005.57,0003.56,0003.13
2023-08-26 05:22:00,SystemResetWarning,0840.2,4.99,000.00,030.1,027.8,000.0,038.1,030.8,33.6,0000.0,0005.50,0003.54,0003.13
2023-08-26 05:23:00,SystemResetWarning,0840.2,5.00,000.00,030.1,027.6,000.0,038.2,030.8,34.1,0000.0,0005.55,0003.56,0003.14
2023-08-26 05:24:00,SystemResetWarning,0840.2,5.00,000.00,030.1,025.9,000.0,038.0,030.5,34.0,0000.0,0005.51,0003.55,0003.13
2023-08-26 05:25:00,SystemResetWarning,0840.2,5.01,000.00,030.0,024.8,000.0,037.9,030.3,33.6,0000.0,0005.57,0003.55,0003.12
2023-08-26 05:26:00,SystemResetWarning,0840.2,5.01,000.00,029.8,024.6,000.0,037.9,030.0,33.2,0000.0,0005.55,0003.51,0003.11
2023-08-26 05:27:00,SystemResetWarning,0840.2,5.00,000.00,029.7,024.9,000.0,038.0,029.9,32.9,0000.0,0005.60,0003.53,0003.12
2023-08-26 05:28:00,SystemResetWarning,0840.2,4.98,000.00,029.6,025.3,000.0,038.0,030.0,32.6,0000.0,0006.05,0003.56,0003.14
2023-08-26 05:29:00,SystemResetWarning,0840.2,5.00,000.00,029.5,025.7,000.0,038.0,030.1,32.5,0000.0,0007.29,0003.57,0003.14
2023-08-26 05:30:00,SystemResetWarning,0840.1,5.01,000.00,029.5,026.1,000.0,038.0,030.2,32.1,0000.0,0007.52,0003.54,0003.11
2023-08-26 05:31:00,SystemResetWarning,0840.1,5.01,000.00,029.5,026.4,000.0,038.0,030.2,32.0,0000.0,0007.79,0003.58,0003.12
2023-08-26 05:32:00,SystemResetWarning,0840.1,5.00,000.00,029.5,026.6,000.0,038.0,030.3,32.3,0000.0,0007.85,0003.60,0003.13
2023-08-26 05:33:00,SystemResetWarning,0840.1,5.00,000.00,029.4,026.8,000.0,038.0,030.3,32.8,0000.0,0007.84,0003.59,0003.13
2023-08-26 05:34:00,SystemResetWarning,0840.1,5.00,000.00,029.4,026.9,000.0,038.0,030.3,32.8,0000.0,0007.84,0003.58,0003.14
2023-08-26 05:35:00,SystemResetWarning,0840.1,5.00,000.00,029.4,027.1,000.0,038.0,030.4,33.0,0000.0,0007.85,0003.58,0003.14
2023-08-26 05:36:00,SystemResetWarning,0840.1,5.00,000.00,029.4,027.2,000.0,037.9,030.4,33.4,0000.0,0007.77,0003.56,0003.15
2023-08-26 05:37:00,SystemResetWarning,0840.1,5.00,000.00,029.4,027.3,000.0,037.9,030.4,33.7,0000.0,0007.73,0003.57,0003.16
2023-08-26 05:38:00,SystemResetWarning,0840.1,5.01,000.00,029.4,027.4,000.0,037.9,030.5,34.1,0000.0,0007.76,0003.60,0003.17
2023-08-26 05:39:00,SystemResetWarning,0840.1,4.99,000.00,029.4,027.5,000.0,037.9,030.5,34.3,0000.0,0007.34,0003.57,0003.17
2023-08-26 05:40:00,SystemResetWarning,0840.1,4.99,000.00,029.4,027.5,000.0,037.9,030.5,34.9,0000.0,0006.19,0003.52,0003.17
2023-08-26 05:41:00,SystemResetWarning,0840.2,5.01,000.00,029.5,027.6,000.0,037.9,030.6,34.2,0000.0,0005.76,0003.52,0003.18
2023-08-26 05:42:00,SystemResetWarning,0840.2,4.98,000.00,029.6,027.7,000.0,037.9,030.6,34.3,0000.0,0005.61,0003.52,0003.18
2023-08-26 05:43:00,SystemResetWarning,0840.2,5.00,000.00,029.6,027.7,000.0,038.0,030.7,33.8,0000.0,0005.62,0003.49,0003.18
2023-08-26 05:44:00,SystemResetWarning,0840.2,5.01,000.00,029.6,027.7,000.0,038.0,030.7,34.3,0000.0,0005.65,0003.50,0003.18
2023-08-26 05:45:00,SystemResetWarning,0840.2,5.00,000.00,029.6,027.8,000.0,038.0,030.7,34.8,0000.0,0005.57,0003.48,0003.17
2023-08-26 05:46:00,SystemResetWarning,0840.2,5.01,000.00,029.7,027.8,000.0,038.0,030.7,34.4,0000.0,0005.47,0003.46,0003.16
2023-08-26 05:47:00,SystemResetWarning,0840.2,4.98,000.00,029.7,026.8,000.0,037.9,030.6,34.3,0000.0,0005.45,0003.46,0003.15
2023-08-26 05:48:00,SystemResetWarning,0840.2,5.01,000.00,029.6,025.2,000.0,037.8,030.4,34.6,0000.0,0005.39,0003.44,0003.14
2023-08-26 05:49:00,SystemResetWarning,0840.1,5.00,000.00,029.6,024.6,000.0,037.7,030.2,35.4,0000.0,0005.25,0003.41,0003.13
2023-08-26 05:50:00,SystemResetWarning,0840.1,5.02,000.00,029.6,024.8,000.0,037.8,030.0,35.8,0000.0,0005.19,0003.39,0003.12
2023-08-26 05:51:00,SystemResetWarning,0840.1,4.99,000.00,029.8,025.2,000.0,037.8,030.2,35.7,0000.0,0005.16,0003.38,0003.11
2023-08-26 05:52:00,SystemResetWarning,0840.1,5.00,000.00,030.2,025.6,000.0,037.8,030.4,35.4,0000.0,0005.06,0003.37,0003.10
2023-08-26 05:53:00,SystemResetWarning,0840.2,5.02,000.00,030.5,025.9,000.0,037.9,030.6,34.8,0000.0,0005.51,0003.35,0003.10
2023-08-26 05:54:00,SystemResetWarning,0840.2,4.97,000.00,030.8,026.3,000.0,037.9,030.7,34.4,0000.0,0005.45,0003.37,0003.11
2023-08-26 05:55:00,SystemResetWarning,0840.1,5.01,000.00,031.0,026.5,000.0,038.1,030.7,34.3,0000.0,0005.43,0003.35,0003.10
2023-08-26 05:56:00,SystemResetWarning,0840.1,5.01,000.00,031.1,026.8,000.0,038.2,030.7,34.2,0000.0,0005.45,0003.35,0003.10
2023-08-26 05:57:00,SystemResetWarning,0840.1,5.00,000.00,031.1,027.0,000.0,038.3,030.7,34.2,0000.0,0005.70,0003.38,0003.10
2023-08-26 05:58:00,SystemResetWarning,0840.1,5.00,000.00,031.1,027.1,000.0,038.4,030.8,34.2,0000.0,0005.73,0003.39,0003.10
2023-08-26 05:59:00,SystemResetWarning,0840.1,5.00,000.00,031.2,027.3,000.0,038.6,030.8,34.3,0000.0,0005.79,0003.41,0003.10
